Tracking 20942 objects as of 4-Jul-2020
HD Live streaming from Space Station
objects crossing your sky now

MOLNIYA 1-80

Track MOLNIYA 1-80 now!
MOLNIYA 1-80 is classified as:


NORAD ID: 21118
Int'l Code: 1991-012A
Perigee: 1,823.4 km
Apogee: 37,745.7 km
Inclination: 64.4 °
Period: 701.6 minutes
Semi major axis: 26155 km
RCS: 6.3095 m2 (large)
Launch date: February 15, 1991
Source: Commonwealth of Independent States (former USSR) (CIS)
Launch site: PLESETSK MISSILE AND SPACE COMPLEX (PKMTR)
aabbcc
Your satellite tracking list
Your tracking list is empty




NASA's NSSDC Master Catalog

Two Line Element Set (TLE):
1 21118U 91012A   20185.83129487  .00000615  00000-0  00000+0 0  9995
2 21118  64.4189  54.4644 6867069 285.8965  12.8652  2.05237797216352
Source of the keplerian elements: AFSPC